Volver al catálogo

FENGYUN 1C DEB

ActivoSSO
NORAD 30709·DEBRIS·🇨🇳 China

Lanzado May 10, 1999 desde Taiyuan Satellite Launch Center

Loading…

Próximos Pases (próximas 24 horas)

TLE

ActualizadoSource: Space-Track

Época: Sep 14, 2026, 09:35 UTC

1 30709U 99025ART 26257.39992107  .00002218  00000-0  10384-2 0  9997
2 30709  99.1586 249.1649 0079151 206.4041 153.3090 14.19681146999058

Sigue FENGYUN 1C DEB en tiempo real con AllMySat

Download on the App Store